Location: Newark
(41.1500°S, 172.6000°E)
Time: 05:36:22
(UTC+00:00)

OTV 5 (USA 277) - Visible Passes

Search period start: 20 September 2019 00:00
Search period end: 30 September 2019 00:00
Orbit: 295 x 339 km, 54.5° (Epoch: 08 September)

Date Brightness Start Highest point End Pass type
(mag) Time Alt. Az. Time Alt. Az. Time Alt. Az.
20 Sep ? 15:53:57 12° ESE 15:53:57 12° ESE 15:54:21 10° E visible
20 Sep ? 17:24:53 19° WSW 17:26:33 38° NW 17:29:17 10° NNE visible
21 Sep ? 16:08:54 16° ENE 16:08:54 16° ENE 16:09:36 10° ENE visible
21 Sep ? 17:39:50 12° WNW 17:40:55 14° NW 17:42:34 10° NNW visible
22 Sep ? 16:24:06 11° NE 16:24:06 11° NE 16:24:16 10° NE visible
25 Sep ? 07:33:40 10° N 07:35:40 25° NE 07:35:40 25° NE visible
26 Sep ? 07:47:44 10° NW 07:50:23 85° NE 07:51:00 48° SE visible
27 Sep ? 08:02:32 10° WNW 08:04:58 32° SW 08:06:03 23° S visible
28 Sep ? 08:17:56 10° WSW 08:19:44 16° SSW 08:20:52 13° S visible
